Tracking 31032 objects as of 14-Jul-2025
HD Live streaming from Space Station
objects crossing your sky now

MEV-1

Track MEV-1 now!


NORAD ID: 44625
Int'l Code: 2019-067B
Perigee: 35,795.0 km
Apogee: 35,796.1 km
Inclination: 0.5 °
Period: 1,436.2 minutes
Semi major axis: 42166 km
RCS: Unknown
Launch date: October 9, 2019
Source: United States (US)
Launch site: TYURATAM MISSILE AND SPACE COMPLEX (TTMTR)
Your satellite tracking list
Your tracking list is empty




NASA's NSSDC Master Catalog

Two Line Element Set (TLE):
1 44625U 19067B   25194.87635806 -.00000140  00000-0  00000-0 0  9994
2 44625   0.5296  83.3825 0000134  51.9783 268.2141  1.00265373 58021
Source of the keplerian elements: AFSPC